Time,TemperatureF,DewpointF,PressureIn,WindDirection,WindDirectionDegrees,WindSpeedMPH,WindSpeedGustMPH,Humidity,HourlyPrecipIn,Conditions,Clouds,dailyrainin,SoftwareType,DateUTC
2013-02-07 00:00:00,59.6,58.0,29.88,East,86,5.0,8.0,94,0.01,,,0.00,weatherlink.com 1.10,2013-02-07 06:00:00,
2013-02-07 00:15:00,59.5,58.0,29.88,East,96,2.0,9.0,94,0.00,,,0.00,weatherlink.com 1.10,2013-02-07 06:15:00,
2013-02-07 00:30:00,59.5,58.0,29.88,East,96,2.0,10.0,94,0.00,,,0.00,weatherlink.com 1.10,2013-02-07 06:30:00,
2013-02-07 00:45:00,59.6,58.0,29.89,East,79,3.0,9.0,94,0.00,,,0.00,weatherlink.com 1.10,2013-02-07 06:45:00,
2013-02-07 01:00:00,59.5,58.0,29.89,East,84,6.0,6.0,94,0.00,,,0.00,weatherlink.com 1.10,2013-02-07 07:00:00,
2013-02-07 01:15:00,59.3,58.0,29.89,ESE,108,3.0,8.0,94,0.00,,,0.00,weatherlink.com 1.10,2013-02-07 07:15:00,
2013-02-07 01:30:00,59.0,57.0,29.89,East,98,3.0,5.0,94,0.00,,,0.00,weatherlink.com 1.10,2013-02-07 07:30:00,
2013-02-07 01:45:00,58.7,57.0,29.89,ENE,78,0.0,3.0,94,0.00,,,0.00,weatherlink.com 1.10,2013-02-07 07:45:00,
2013-02-07 02:00:00,58.4,57.0,29.89,ENE,74,1.0,1.0,95,0.00,,,0.00,weatherlink.com 1.10,2013-02-07 08:00:00,
2013-02-07 02:15:00,58.2,57.0,29.89,NNW,341,0.0,1.0,95,0.00,,,0.00,weatherlink.com 1.10,2013-02-07 08:15:00,
2013-02-07 02:30:00,58.1,57.0,29.89,ENE,58,0.0,2.0,95,0.00,,,0.00,weatherlink.com 1.10,2013-02-07 08:30:00,
2013-02-07 02:45:00,58.1,57.0,29.87,ENE,60,2.0,2.0,95,0.00,,,0.00,weatherlink.com 1.10,2013-02-07 08:45:00,
2013-02-07 03:00:00,58.4,57.0,29.87,East,86,2.0,5.0,95,0.00,,,0.00,weatherlink.com 1.10,2013-02-07 09:00:00,
2013-02-07 03:15:00,58.6,57.0,29.86,East,99,1.0,4.0,95,0.00,,,0.00,weatherlink.com 1.10,2013-02-07 09:15:00,
2013-02-07 03:30:00,58.6,57.0,29.86,East,98,0.0,6.0,95,0.00,,,0.00,weatherlink.com 1.10,2013-02-07 09:30:00,
2013-02-07 03:45:00,58.5,57.0,29.86,ESE,104,1.0,3.0,95,0.00,,,0.00,weatherlink.com 1.10,2013-02-07 09:45:00,
2013-02-07 04:00:00,58.4,57.0,29.86,ENE,68,2.0,6.0,95,0.00,,,0.00,weatherlink.com 1.10,2013-02-07 10:00:00,
2013-02-07 04:15:00,58.3,57.0,29.88,East,83,0.0,1.0,95,0.00,,,0.00,weatherlink.com 1.10,2013-02-07 10:15:00,
2013-02-07 04:30:00,58.2,57.0,29.88,NE,41,0.0,3.0,95,0.00,,,0.00,weatherlink.com 1.10,2013-02-07 10:30:00,
2013-02-07 04:45:00,58.1,57.0,29.89,NNW,330,1.0,2.0,95,0.00,,,0.00,weatherlink.com 1.10,2013-02-07 10:45:00,
2013-02-07 05:00:00,58.1,57.0,29.89,ENE,61,0.0,2.0,95,0.00,,,0.00,weatherlink.com 1.10,2013-02-07 11:00:00,
2013-02-07 05:15:00,58.0,57.0,29.89,NW,326,0.0,2.0,95,0.00,,,0.00,weatherlink.com 1.10,2013-02-07 11:15:00,
2013-02-07 05:30:00,58.0,57.0,29.90,WNW,294,0.0,1.0,95,0.00,,,0.00,weatherlink.com 1.10,2013-02-07 11:30:00,
2013-02-07 05:45:00,58.0,57.0,29.91,WNW,294,0.0,1.0,95,0.00,,,0.00,weatherlink.com 1.10,2013-02-07 11:45:00,
2013-02-07 06:00:00,58.1,57.0,29.91,East,84,0.0,1.0,95,0.00,,,0.00,weatherlink.com 1.10,2013-02-07 12:00:00,
2013-02-07 06:15:00,58.1,57.0,29.91,East,88,0.0,1.0,95,0.00,,,0.00,weatherlink.com 1.10,2013-02-07 12:15:00,
2013-02-07 06:30:00,58.1,57.0,29.91,ESE,104,1.0,1.0,95,0.00,,,0.00,weatherlink.com 1.10,2013-02-07 12:30:00,
2013-02-07 06:45:00,58.0,57.0,29.92,East,86,0.0,1.0,95,0.00,,,0.00,weatherlink.com 1.10,2013-02-07 12:45:00,
2013-02-07 07:00:00,58.0,57.0,29.93,East,86,0.0,0.0,95,0.00,,,0.00,weatherlink.com 1.10,2013-02-07 13:00:00,
2013-02-07 07:15:00,58.0,57.0,29.92,East,86,0.0,1.0,95,0.00,,,0.00,weatherlink.com 1.10,2013-02-07 13:15:00,
2013-02-07 07:30:00,58.1,57.0,29.93,East,96,0.0,1.0,95,0.00,,,0.00,weatherlink.com 1.10,2013-02-07 13:30:00,
2013-02-07 07:45:00,58.1,57.0,29.94,East,96,0.0,1.0,95,0.00,,,0.00,weatherlink.com 1.10,2013-02-07 13:45:00,
2013-02-07 08:00:00,58.3,57.0,29.95,East,96,0.0,0.0,95,0.00,,,0.00,weatherlink.com 1.10,2013-02-07 14:00:00,
2013-02-07 08:15:00,58.4,57.0,29.96,East,96,0.0,1.0,95,0.00,,,0.00,weatherlink.com 1.10,2013-02-07 14:15:00,
2013-02-07 08:31:00,58.6,57.0,29.96,East,96,0.0,0.0,95,0.00,,,0.00,weatherlink.com 1.10,2013-02-07 14:31:00,
2013-02-07 08:45:00,58.8,57.0,29.96,East,96,0.0,0.0,95,0.00,,,0.00,weatherlink.com 1.10,2013-02-07 14:45:00,
2013-02-07 09:01:00,59.2,58.0,29.97,West,277,1.0,2.0,95,0.00,,,0.00,weatherlink.com 1.10,2013-02-07 15:01:00,
2013-02-07 09:16:00,59.3,58.0,29.97,WNW,301,1.0,2.0,95,0.00,,,0.00,weatherlink.com 1.10,2013-02-07 15:16:00,
2013-02-07 09:31:00,59.3,58.0,29.97,NW,309,0.0,2.0,95,0.00,,,0.00,weatherlink.com 1.10,2013-02-07 15:31:00,
2013-02-07 09:46:00,59.4,58.0,29.98,NW,309,0.0,4.0,95,0.00,,,0.00,weatherlink.com 1.10,2013-02-07 15:46:00,
2013-02-07 10:01:00,59.5,58.0,29.98,NNW,328,3.0,3.0,95,0.00,,,0.00,weatherlink.com 1.10,2013-02-07 16:01:00,
2013-02-07 10:16:00,59.7,58.0,29.98,NW,322,0.0,4.0,95,0.00,,,0.00,weatherlink.com 1.10,2013-02-07 16:16:00,
2013-02-07 10:31:00,60.5,59.0,29.98,WNW,298,0.0,3.0,95,0.00,,,0.00,weatherlink.com 1.10,2013-02-07 16:31:00,
2013-02-07 10:46:00,61.3,60.0,29.97,NE,39,1.0,2.0,94,0.00,,,0.00,weatherlink.com 1.10,2013-02-07 16:46:00,
2013-02-07 11:01:00,61.6,59.0,29.97,NW,314,1.0,3.0,92,0.00,,,0.00,weatherlink.com 1.10,2013-02-07 17:01:00,
2013-02-07 11:16:00,62.2,60.0,29.97,ENE,63,0.0,2.0,91,0.00,,,0.00,weatherlink.com 1.10,2013-02-07 17:16:00,
2013-02-07 11:31:00,62.7,60.0,29.96,NNE,32,1.0,2.0,90,0.00,,,0.00,weatherlink.com 1.10,2013-02-07 17:31:00,
2013-02-07 11:46:00,63.3,60.0,29.96,SE,139,0.0,4.0,88,0.00,,,0.00,weatherlink.com 1.10,2013-02-07 17:46:00,
2013-02-07 12:01:00,63.5,60.0,29.96,NNW,334,1.0,4.0,88,0.00,,,0.00,weatherlink.com 1.10,2013-02-07 18:01:00,
2013-02-07 12:16:00,63.6,60.0,29.96,NW,308,2.0,4.0,88,0.00,,,0.00,weatherlink.com 1.10,2013-02-07 18:16:00,
2013-02-07 12:31:00,64.3,61.0,29.95,NE,47,2.0,4.0,88,0.00,,,0.00,weatherlink.com 1.10,2013-02-07 18:31:00,
2013-02-07 12:46:00,65.3,61.0,29.95,NW,309,0.0,4.0,86,0.00,,,0.00,weatherlink.com 1.10,2013-02-07 18:46:00,
2013-02-07 13:01:00,66.3,61.0,29.94,NE,39,0.0,2.0,84,0.00,,,0.00,weatherlink.com 1.10,2013-02-07 19:01:00,
2013-02-07 13:16:00,67.2,62.0,29.94,NE,56,1.0,1.0,83,0.00,,,0.00,weatherlink.com 1.10,2013-02-07 19:16:00,
2013-02-07 13:31:00,67.2,62.0,29.93,NNW,330,1.0,3.0,83,0.00,,,0.00,weatherlink.com 1.10,2013-02-07 19:31:00,
2013-02-07 14:01:00,66.9,61.0,29.92,ENE,69,2.0,4.0,82,0.00,,,0.00,weatherlink.com 1.10,2013-02-07 20:01:00,
2013-02-07 14:16:00,67.0,61.0,29.92,West,281,0.0,4.0,82,0.00,,,0.00,weatherlink.com 1.10,2013-02-07 20:16:00,
2013-02-07 14:31:00,67.8,62.0,29.92,WNW,301,1.0,3.0,81,0.00,,,0.00,weatherlink.com 1.10,2013-02-07 20:31:00,
2013-02-07 14:47:00,67.3,62.0,29.92,NNW,341,0.0,3.0,83,0.00,,,0.00,weatherlink.com 1.10,2013-02-07 20:47:00,
2013-02-07 15:01:00,68.2,62.0,29.91,ENE,71,0.0,2.0,81,0.00,,,0.00,weatherlink.com 1.10,2013-02-07 21:01:00,
2013-02-07 15:17:00,68.1,62.0,29.91,East,91,1.0,2.0,80,0.00,,,0.00,weatherlink.com 1.10,2013-02-07 21:17:00,
2013-02-07 15:31:00,68.3,62.0,29.91,ENE,66,0.0,1.0,80,0.00,,,0.00,weatherlink.com 1.10,2013-02-07 21:31:00,
2013-02-07 15:46:00,68.3,62.0,29.91,East,96,0.0,0.0,80,0.00,,,0.00,weatherlink.com 1.10,2013-02-07 21:46:00,
2013-02-07 16:02:00,69.6,62.0,29.91,SSE,158,0.0,0.0,78,0.00,,,0.00,weatherlink.com 1.10,2013-02-07 22:02:00,
2013-02-07 16:16:00,69.2,62.0,29.90,SE,143,0.0,2.0,78,0.00,,,0.00,weatherlink.com 1.10,2013-02-07 22:16:00,
2013-02-07 16:31:00,68.9,63.0,29.90,East,84,0.0,1.0,80,0.00,,,0.00,weatherlink.com 1.10,2013-02-07 22:31:00,
2013-02-07 16:47:00,69.6,62.0,29.90,SSW,198,0.0,2.0,78,0.00,,,0.00,weatherlink.com 1.10,2013-02-07 22:47:00,
2013-02-07 17:01:00,68.3,62.0,29.91,South,170,0.0,4.0,80,0.00,,,0.00,weatherlink.com 1.10,2013-02-07 23:01:00,
2013-02-07 17:17:00,67.9,62.0,29.91,South,169,0.0,0.0,81,0.00,,,0.00,weatherlink.com 1.10,2013-02-07 23:17:00,
2013-02-07 17:31:00,67.1,62.0,29.92,West,274,2.0,2.0,84,0.00,,,0.00,weatherlink.com 1.10,2013-02-07 23:31:00,
2013-02-07 17:46:00,66.4,62.0,29.92,WNW,283,1.0,2.0,85,0.00,,,0.00,weatherlink.com 1.10,2013-02-07 23:46:00,
2013-02-07 18:01:00,65.9,62.0,29.92,SSW,197,0.0,1.0,86,0.00,,,0.00,weatherlink.com 1.10,2013-02-08 00:01:00,
2013-02-07 18:17:00,65.3,61.0,29.91,SSW,197,0.0,0.0,87,0.00,,,0.00,weatherlink.com 1.10,2013-02-08 00:17:00,
2013-02-07 18:31:00,64.8,61.0,29.92,West,281,0.0,3.0,88,0.00,,,0.00,weatherlink.com 1.10,2013-02-08 00:31:00,
2013-02-07 18:47:00,64.7,61.0,29.92,WNW,294,0.0,3.0,88,0.00,,,0.00,weatherlink.com 1.10,2013-02-08 00:47:00,
2013-02-07 19:02:00,64.6,61.0,29.93,West,277,0.0,3.0,88,0.00,,,0.00,weatherlink.com 1.10,2013-02-08 01:02:00,
2013-02-07 19:16:00,64.5,61.0,29.93,West,277,0.0,1.0,88,0.00,,,0.00,weatherlink.com 1.10,2013-02-08 01:16:00,
2013-02-07 19:32:00,64.4,62.0,29.94,WNW,287,0.0,3.0,90,0.00,,,0.00,weatherlink.com 1.10,2013-02-08 01:32:00,
2013-02-07 20:02:00,64.0,61.0,29.94,West,276,0.0,2.0,91,0.00,,,0.00,weatherlink.com 1.10,2013-02-08 02:02:00,
2013-02-07 20:17:00,63.8,62.0,29.95,WSW,256,0.0,1.0,92,0.00,,,0.00,weatherlink.com 1.10,2013-02-08 02:17:00,
2013-02-07 20:32:00,63.7,61.0,29.95,West,280,0.0,2.0,91,0.00,,,0.00,weatherlink.com 1.10,2013-02-08 02:32:00,
2013-02-07 20:47:00,63.6,61.0,29.95,West,276,0.0,1.0,91,0.00,,,0.00,weatherlink.com 1.10,2013-02-08 02:47:00,
2013-02-07 21:02:00,63.5,61.0,29.95,West,267,0.0,1.0,92,0.00,,,0.00,weatherlink.com 1.10,2013-02-08 03:02:00,
2013-02-07 21:17:00,63.4,61.0,29.95,WNW,290,0.0,1.0,92,0.00,,,0.00,weatherlink.com 1.10,2013-02-08 03:17:00,
2013-02-07 21:32:00,63.3,61.0,29.95,WNW,291,0.0,0.0,92,0.00,,,0.00,weatherlink.com 1.10,2013-02-08 03:32:00,
2013-02-07 21:47:00,62.7,60.0,29.94,WNW,290,0.0,0.0,92,0.00,,,0.00,weatherlink.com 1.10,2013-02-08 03:47:00,
2013-02-07 22:02:00,61.9,60.0,29.94,SSW,205,2.0,4.0,93,0.00,,,0.00,weatherlink.com 1.10,2013-02-08 04:02:00,
2013-02-07 22:17:00,61.2,60.0,29.95,SSW,210,0.0,2.0,94,0.00,,,0.00,weatherlink.com 1.10,2013-02-08 04:17:00,
2013-02-07 22:32:00,60.7,59.0,29.95,SSW,193,1.0,2.0,94,0.00,,,0.00,weatherlink.com 1.10,2013-02-08 04:32:00,
2013-02-07 22:47:00,60.7,59.0,29.95,SSE,167,0.0,2.0,95,0.00,,,0.00,weatherlink.com 1.10,2013-02-08 04:47:00,
2013-02-07 23:02:00,60.6,59.0,29.96,SSE,165,0.0,6.0,95,0.00,,,0.00,weatherlink.com 1.10,2013-02-08 05:02:00,
2013-02-07 23:17:00,60.4,59.0,29.95,SSW,195,1.0,4.0,95,0.00,,,0.00,weatherlink.com 1.10,2013-02-08 05:17:00,
2013-02-07 23:32:00,60.1,59.0,29.95,SW,214,0.0,6.0,95,0.00,,,0.00,weatherlink.com 1.10,2013-02-08 05:32:00,
2013-02-07 23:47:00,60.1,59.0,29.95,South,183,1.0,5.0,96,0.00,,,0.00,weatherlink.com 1.10,2013-02-08 05:47:00,